This is the latest recevied weather packets stored in our database for station/object JA3YAI-13. If no packets are shown the sender has not sent any weather packets the latest 10 day(s).
| Time | Temp. | Humidity | Pressure | Rain* | Wind** | Luminosity | Snow |
|---|---|---|---|---|---|---|---|
| 1777241784 | 13.89° C | 99% | 1001.6 hPa | 0 mm | - | - | - |
| 1777241186 | 13.89° C | 99% | 1001.6 hPa | 0 mm | - | - | - |
| 1777240585 | 13.89° C | 99% | 1001.4 hPa | 0 mm | - | - | - |
| 1777239985 | 13.89° C | 99% | 1001.4 hPa | 0.25 mm | - | - | - |
| 1777239384 | 13.89° C | 99% | 1001.1 hPa | 1.02 mm | - | - | - |
| 1777238784 | 13.33° C | 99% | 1001.2 hPa | 1.02 mm | - | - | - |
| 1777238186 | 13.33° C | 99% | 1000.9 hPa | 1.02 mm | - | - | - |
| 1777237585 | 13.33° C | 99% | 1000.4 hPa | 1.02 mm | - | - | - |
| 1777236985 | 13.33° C | 99% | 1000.4 hPa | 1.27 mm | - | - | - |
| 1777236385 | 13.33° C | 99% | 1000.1 hPa | 1.02 mm | - | - | - |
| 1777235784 | 13.33° C | 99% | 1000 hPa | 0.51 mm | - | - | - |
| 1777235184 | 13.33° C | 99% | 1000 hPa | 0.51 mm | - | - | - |
| 1777234585 | 13.33° C | 99% | 1000 hPa | 0.51 mm | - | - | - |
| 1777233985 | 13.33° C | 99% | 999.9 hPa | 1.02 mm | - | - | - |
| 1777233385 | 13.33° C | 99% | 999.8 hPa | 1.52 mm | - | - | - |
| 1777232784 | 13.33° C | 99% | 999.9 hPa | 1.78 mm | - | - | - |
| 1777232184 | 13.33° C | 99% | 999.8 hPa | 1.52 mm | - | - | - |
| 1777231586 | 13.33° C | 99% | 999.8 hPa | 1.78 mm | - | - | - |
| 1777230985 | 13.33° C | 99% | 999.8 hPa | 1.78 mm | - | - | - |
| 1777230385 | 13.33° C | 99% | 999.7 hPa | 1.52 mm | - | - | - |
| 1777229785 | 13.89° C | 99% | 999.8 hPa | 0.51 mm | - | - | - |
| 1777229184 | 13.89° C | 99% | 999.7 hPa | 0.25 mm | - | - | - |
| 1777228586 | 13.33° C | 99% | 999.6 hPa | 0.25 mm | - | - | - |
| 1777227985 | 13.33° C | 99% | 999.6 hPa | 0 mm | - | - | - |
| 1777227385 | 13.33° C | 99% | 999.5 hPa | 0 mm | - | - | - |
* Rain latest hour (hover to see other rain measurements)
** Current wind speed in m/s (hover to see current wind gust speed)